Weather History for KLGA - October, 2014

Change the Weather History Date:

Saturday, October 4, 2014

  Actual Average Record
Temperature  
Mean Temperature 62 °F 62 °F  
Max Temperature 71 °F 70 °F 86 °F (2013)
Min Temperature 52 °F 55 °F 38 °F (1945)
Degree Days  
Heating Degree Days 3 4  
Month to date heating degree days 8 16  
Since 1 July heating degree days 21 51  
Cooling Degree Days 0 2  
Month to date cooling degree days 0 8  
Year to date cooling degree days 1168 1198  
Growing Degree Days 14 (Base 50)    
Moisture  
Dew Point 57 °F    
Average Humidity 72    
Maximum Humidity 93    
Minimum Humidity 51    
Precipitation  
Precipitation 1.05 in 0.12 in 1.05 in (2014)
Month to date precipitation 1.05 0.49  
Year to date precipitation 37.35 34.47  
Snow  
Snow 0.00 in 0.00 in - ()
Month to date snowfall 0.0 0.0  
Since 1 July snowfall 0.0 0.0  
Snow Depth 0.00 in    
Sea Level Pressure  
Sea Level Pressure 29.62 in    
Wind  
Wind Speed 13 mph (South)    
Max Wind Speed 24 mph    
Max Gust Speed 32 mph    
Visibility 6 miles    
Events Rain    
T = Trace of Precipitation, MM = Missing Value Source: NWS Daily Summary

Daily Weather History Graph

Daily Weather History Graph

Search for Another Location

Airport or City:

Trip Planner

Search our weather history database for the weather conditions in past years. The results will help you decide how hot, cold, wet, or windy it might be!

Date:

Astronomy

Oct. 04, 2014 Rise Set
Actual Time 6:55 AM EDT 6:32 PM EDT
Civil Twilight 6:27 AM EDT 6:59 PM EDT
Nautical Twilight 5:56 AM EDT 7:31 PM EDT
Astronomical Twilight 5:24 AM EDT 8:03 PM EDT
Moon 4:09 PM EDT (10/4) 2:18 AM EDT (10/4)
Length of Visible Light 12h 32m
Length of Day
11h 37m
Waxing Gibbous, 81% of the Moon is Illuminated
Oct 4
Waxing Gibbous
Oct 8
Full
Oct 15
Last Quarter
Oct 23
New
Oct 30
First Quarter

Hourly Weather History & Observations

Time (EDT) Temp. Dew Point Humidity Pressure Visibility Wind Dir Wind Speed Gust Speed Precip Events Conditions
12:51 AM 63.0 °F 53.1 °F 70% 29.83 in 10.0 mi SE 8.1 mph - N/A   Overcast
1:51 AM 63.0 °F 54.0 °F 72% 29.81 in 10.0 mi SSE 5.8 mph - N/A   Overcast
2:51 AM 64.0 °F 55.0 °F 73% 29.77 in 10.0 mi SE 9.2 mph - N/A   Overcast
3:51 AM 63.0 °F 57.0 °F 81% 29.75 in 10.0 mi SSE 9.2 mph - 0.00 in Rain Light Rain
4:32 AM 62.6 °F 57.2 °F 82% 29.73 in 10.0 mi SE 10.4 mph - 0.01 in   Overcast
4:51 AM 64.0 °F 57.0 °F 78% 29.73 in 10.0 mi SE 9.2 mph - 0.01 in   Overcast
5:51 AM 64.0 °F 57.9 °F 80% 29.70 in 8.0 mi SE 15.0 mph 20.7 mph 0.00 in Rain Light Rain
6:51 AM 63.0 °F 60.1 °F 90% 29.68 in 10.0 mi SE 13.8 mph - 0.02 in Rain Light Rain
7:15 AM 62.6 °F 60.8 °F 94% 29.67 in 3.0 mi SE 11.5 mph - 0.03 in Rain Rain
7:18 AM 62.6 °F 60.8 °F 94% 29.67 in 2.0 mi SE 15.0 mph 20.7 mph 0.03 in Rain Light Rain
7:48 AM 62.6 °F 60.8 °F 94% 29.66 in 2.0 mi SE 12.7 mph - 0.04 in Rain Light Rain
7:51 AM 63.0 °F 61.0 °F 93% 29.66 in 2.0 mi SE 12.7 mph 19.6 mph 0.04 in   Overcast
8:47 AM 64.4 °F 62.6 °F 94% 29.63 in 3.0 mi SE 19.6 mph 24.2 mph 0.02 in Rain Light Rain
8:51 AM 64.0 °F 62.1 °F 93% 29.63 in 3.0 mi SE 15.0 mph 24.2 mph 0.02 in Rain Light Rain
9:47 AM 64.4 °F 62.6 °F 94% 29.61 in 1.0 mi SE 13.8 mph 21.9 mph 0.07 in Rain Heavy Rain
9:51 AM 64.0 °F 62.1 °F 93% 29.61 in 1.0 mi SE 15.0 mph 21.9 mph 0.10 in Rain Heavy Rain
10:48 AM 66.2 °F 62.6 °F 88% 29.57 in 1.0 mi East 8.1 mph - 0.52 in Rain Heavy Rain
10:51 AM 66.0 °F 63.0 °F 90% 29.58 in 1.8 mi Variable 5.8 mph - 0.53 in Rain Rain
11:45 AM 66.2 °F 64.4 °F 94% 29.54 in 2.0 mi SSE 17.3 mph 26.5 mph 0.17 in Rain Rain
11:51 AM 66.9 °F 64.0 °F 90% 29.54 in 2.0 mi SSE 12.7 mph 25.3 mph 0.19 in Rain Rain
12:51 PM 69.1 °F 66.0 °F 90% 29.52 in 2.0 mi South 19.6 mph 26.5 mph 0.10 in Rain Light Rain
12:58 PM 69.8 °F 66.2 °F 88% 29.52 in 2.0 mi South 16.1 mph 26.5 mph 0.01 in Rain Light Rain
1:40 PM 69.8 °F 66.2 °F 88% 29.50 in 3.0 mi South 9.2 mph - 0.03 in   Overcast
1:51 PM 70.0 °F 66.9 °F 90% 29.50 in 3.0 mi South 5.8 mph - 0.03 in Rain Light Rain
2:08 PM 69.8 °F 66.2 °F 88% 29.50 in 3.0 mi South 9.2 mph - 0.01 in Rain Light Rain
2:34 PM 69.8 °F 66.2 °F 88% 29.51 in 10.0 mi SW 9.2 mph - 0.01 in   Mostly Cloudy
2:51 PM 66.9 °F 63.0 °F 87% 29.51 in 10.0 mi West 11.5 mph - 0.01 in   Mostly Cloudy
3:51 PM 68.0 °F 61.0 °F 78% 29.51 in 10.0 mi NW 11.5 mph - N/A   Mostly Cloudy
4:27 PM 68.0 °F 57.2 °F 68% 29.51 in 10.0 mi WNW 13.8 mph - N/A   Mostly Cloudy
4:51 PM 68.0 °F 55.0 °F 63% 29.52 in 10.0 mi West 13.8 mph 20.7 mph N/A   Scattered Clouds
5:51 PM 69.1 °F 54.0 °F 58% 29.54 in 10.0 mi West 11.5 mph - N/A   Mostly Cloudy
6:51 PM 66.0 °F 51.1 °F 59% 29.57 in 10.0 mi West 18.4 mph 26.5 mph N/A   Mostly Cloudy
7:51 PM 62.1 °F 46.0 °F 56% 29.61 in 10.0 mi WNW 24.2 mph 31.1 mph N/A   Scattered Clouds
8:51 PM 60.1 °F 44.1 °F 55% 29.64 in 10.0 mi WNW 16.1 mph - N/A   Partly Cloudy
9:51 PM 59.0 °F 41.0 °F 51% 29.66 in 10.0 mi West 13.8 mph 20.7 mph N/A   Scattered Clouds
10:51 PM 57.0 °F 39.0 °F 51% 29.69 in 10.0 mi WNW 15.0 mph 20.7 mph N/A   Scattered Clouds
11:51 PM 55.0 °F 37.0 °F 51% 29.70 in 10.0 mi WNW 15.0 mph - N/A   Partly Cloudy